Location: Mentone
(34.5413°N, 85.5351°W)
Time: 14:22:34
(UTC-05:00)

AO-Echo - Visible Passes

Search period start: 22 May 2017 00:00
Search period end: 01 June 2017 00:00
Orbit: 693 x 811 km, 98.4° (Epoch: 21 May)

Date Brightness Start Highest point End Pass type
(mag) Time Alt. Az. Time Alt. Az. Time Alt. Az.
22 May ? 02:05:53 10° NNE 02:10:01 58° N 02:10:01 58° N visible
23 May ? 01:25:48 10° NNE 01:29:07 30° ENE 01:29:07 30° ENE visible
23 May ? 03:04:58 10° NNW 03:09:03 24° WNW 03:09:03 24° WNW visible
24 May ? 00:47:07 10° ENE 00:48:12 12° ENE 00:48:12 12° ENE visible
24 May ? 02:23:43 10° N 02:28:08 54° NW 02:28:08 54° NW visible
25 May ? 01:43:17 10° NNE 01:47:14 45° NE 01:47:14 45° NE visible
25 May ? 03:23:30 10° NNW 03:26:40 16° WNW 03:27:10 16° WNW visible
26 May ? 01:03:47 10° NE 01:06:19 19° ENE 01:06:19 19° ENE visible
26 May ? 02:41:43 10° N 02:46:15 39° WNW 02:46:15 39° WNW visible
27 May ? 02:00:57 10° NNE 02:05:20 63° NNE 02:05:20 63° NNE visible
27 May ? 03:42:58 10° NW 03:44:13 11° WNW 03:45:16 10° WNW visible
28 May ? 01:20:58 10° NE 01:24:25 29° ENE 01:24:25 29° ENE visible
28 May ? 02:59:53 10° NNW 03:04:13 27° WNW 03:04:22 27° WNW visible
29 May ? 00:42:40 10° ENE 00:43:31 12° ENE 00:43:31 12° ENE visible
29 May ? 02:18:45 10° N 02:23:26 61° NW 02:23:26 61° NW visible
30 May ? 01:38:24 10° NNE 01:42:31 43° ENE 01:42:31 43° ENE visible
30 May ? 03:18:18 10° NNW 03:21:50 18° WNW 03:22:27 18° WNW visible
31 May ? 00:59:05 10° NE 01:01:36 18° ENE 01:01:36 18° ENE visible
31 May ? 02:36:42 10° N 02:41:32 43° WNW 02:41:32 43° WNW visible
